Regional Weather Roundup
Issued by NWS

Home | Current Version | Previous Version | Text Only | Print | Product List | Glossary Off
Versions: 1 2 3 4 5 6 7 8 9 10 11 12 13 14 15 16 17 18 19 20 21 22 23 24 25 26 27 28 29 30 31 32 33 34 35 36 37 38 39 40 41 42 43 44 45 46 47 48 49 50

000
ASUS43 KLSX 041659
RWRMO

WEATHER SUMMARY FOR MISSOURI
NATIONAL WEATHER SERVICE SPRINGFIELD MO
1200 PM CDT MON MAY 04 2015

NOTE: "FAIR" INDICATES FEW OR NO CLOUDS BELOW 12,000 FEET WITH NO
       SIGNIFICANT WEATHER AND/OR OBSTRUCTIONS TO VISIBILITY.
       CURRENT SKY AND/OR WEATHER CONDITIONS ARE NOT AVAILABLE FOR
       CHILLICOTHE AND FARMINGTON.

MOZ001>031-035>038-043-044-053-054-041800-
...NORTHERN AND WESTERN MISSOURI...

CITY           SKY/WX    TMP DP  RH WIND       PRES   REMARKS
KANSAS CTY INT PTSUNNY   72  61  68 CALM      30.06S
KANSAS C DTWN  PTSUNNY   74  61  63 NE5       30.05S
LEE`S SUMMIT   PTSUNNY   74  61  63 CALM      30.07S
ST JOSEPH      PTSUNNY   74  59  59 E6        30.04S
CHILLICOTHE      N/A     71  61  70 SE6       30.04F
KIRKSVILLE     MOSUNNY   76  61  59 VRB5      30.07S

$$
MOZ066>068-077>081-088>096-101>105-041800-
...SOUTHWEST MISSOURI...

CITY           SKY/WX    TMP DP  RH WIND       PRES   REMARKS
SPRINGFIELD    PTSUNNY   76  59  55 SW12      30.14R
JOPLIN         PTSUNNY   77  61  57 SW13G25   30.12R

$$
MOZ032>034-039>042-045>050-055>058-069>072-041800-
...CENTRAL MISSOURI...

CITY           SKY/WX    TMP DP  RH WIND       PRES   REMARKS
COLUMBIA       CLOUDY    75  60  59 SW12      30.11R
JEFFERSON CITY CLOUDY    76  58  53 CALM      30.11R
ROLLA          MOSUNNY   77  60  55 SW13G20   30.12R
SEDALIA        CLOUDY    69  60  73 S3        30.11R
OSAGE BEACH    PTSUNNY  N/A N/A N/A SW14G20   30.10S

$$
MOZ051-052-059>065-041800-
...EAST CENTRAL MISSOURI...

CITY           SKY/WX    TMP DP  RH WIND       PRES   REMARKS
ST LOUIS INTL  PTSUNNY   81  58  45 W12       30.13R
SPIRIT OF STL  PTSUNNY   79  58  48 SW14      30.12R
ST CHARLES     PTSUNNY   80  57  45 SW14      30.11R

$$
MOZ072>076-082>087-097>100-106>115-041800-
...SOUTH CENTRAL AND SOUTHEAST MISSOURI...

CITY           SKY/WX    TMP DP  RH WIND       PRES   REMARKS
CAPE GIRARDEAU MOSUNNY   82  59  45 SW9G23    30.17F
FARMINGTON     MOSUNNY   79  57  47 S17       30.20F
POPLAR BLUFF   MOSUNNY   81  58  45 S13       30.17S
WEST PLAINS    MOSUNNY   77  57  50 S7        30.19S

$$



USA.gov is the U.S. government's official web portal to all federal, state and local government web resources and services.